Mobile, AL

5:42 AM CST on December 03, 2016 (GMT -0600)
Mobile Downtown

Weather History for KBFM - December, 2012

Change the Weather History Date:

Friday, December 7, 2012

  Actual Average Record
Temperature  
Mean Temperature 66 °F -  
Max Temperature 70 °F 63 °F 78 °F (1996)
Min Temperature 61 °F 45 °F 27 °F (2010)
Growing Degree Days 16 (Base 50)    
Moisture  
Dew Point 62 °F    
Average Humidity 91    
Maximum Humidity 100    
Minimum Humidity 78    
Precipitation  
Precipitation 0.01 in - - ()
Sea Level Pressure  
Sea Level Pressure 29.98 in    
Wind  
Wind Speed 5 mph (East)    
Max Wind Speed 13 mph    
Max Gust Speed -    
Visibility 9 miles    
Events Rain    
Averages and records for this station are not official NWS values.
T = Trace of Precipitation, MM = Missing Value Source: NWS Daily Summary

Daily Weather History Graph

Daily Weather History Graph

Search for Another Location

Airport or City:

Trip Planner

Search our weather history database for the weather conditions in past years. The results will help you decide how hot, cold, wet, or windy it might be!

Date:

Astronomy

Dec. 07, 2012 Rise Set
Actual Time 6:36 AM CST 4:51 PM CST
Civil Twilight 6:10 AM CST 5:17 PM CST
Nautical Twilight 5:40 AM CST 5:47 PM CST
Astronomical Twilight 5:11 AM CST 6:16 PM CST
Moon 12:18 AM CST (12/7) 12:27 PM CST (12/7)
Length of Visible Light 11h 06m
Length of Day
10h 14m
Last Quarter, 38% of the Moon is Illuminated
Dec 7
Last Quarter
Dec 13
New
Dec 19
First Quarter
Dec 28
Full
Jan 4
Last Quarter

Hourly Weather History & Observations

Time (CST) Temp. Dew Point Humidity Pressure Visibility Wind Dir Wind Speed Gust Speed Precip Events Conditions
12:53 AM 61.0 °F 60.1 °F 97% 29.99 in 7.0 mi Calm Calm - N/A   Clear
1:53 AM 63.0 °F 62.1 °F 97% 29.98 in 10.0 mi NE 5.8 mph - N/A   Clear
2:01 AM 62.6 °F 62.6 °F 100% 29.98 in 10.0 mi ENE 5.8 mph - N/A   Scattered Clouds
2:22 AM 62.6 °F 60.8 °F 94% 29.98 in 10.0 mi East 4.6 mph - N/A   Mostly Cloudy
2:33 AM 62.6 °F 60.8 °F 94% 29.97 in 10.0 mi NE 3.5 mph - N/A   Scattered Clouds
2:45 AM 62.6 °F 60.8 °F 94% 29.98 in 10.0 mi ENE 4.6 mph - N/A   Mostly Cloudy
2:53 AM 62.1 °F 61.0 °F 96% 29.98 in 10.0 mi ENE 5.8 mph - N/A   Mostly Cloudy
3:26 AM 62.6 °F 60.8 °F 94% 29.97 in 10.0 mi NE 6.9 mph - N/A   Overcast
3:53 AM 62.1 °F 60.1 °F 93% 29.97 in 10.0 mi ENE 3.5 mph - N/A   Overcast
3:57 AM 62.6 °F 60.8 °F 94% 29.97 in 10.0 mi ENE 9.2 mph - N/A   Mostly Cloudy
4:53 AM 62.1 °F 59.0 °F 90% 29.98 in 10.0 mi ENE 5.8 mph - N/A   Mostly Cloudy
5:53 AM 62.1 °F 60.1 °F 93% 30.00 in 10.0 mi ENE 4.6 mph - N/A   Overcast
6:53 AM 62.1 °F 60.1 °F 93% 30.01 in 10.0 mi ENE 6.9 mph - N/A   Mostly Cloudy
7:19 AM 62.6 °F 60.8 °F 94% 30.01 in 10.0 mi ENE 6.9 mph - N/A   Mostly Cloudy
7:53 AM 62.1 °F 61.0 °F 96% 30.02 in 9.0 mi ENE 8.1 mph - N/A   Overcast
8:53 AM 63.0 °F 62.1 °F 97% 30.02 in 8.0 mi ENE 8.1 mph - N/A   Overcast
9:02 AM 62.6 °F 62.6 °F 100% 30.02 in 8.0 mi East 8.1 mph - N/A   Overcast
9:53 AM 64.9 °F 62.1 °F 90% 30.02 in 10.0 mi East 9.2 mph - N/A   Overcast
10:08 AM 64.4 °F 62.6 °F 94% 30.02 in 9.0 mi East 8.1 mph - 0.01 in   Overcast
10:53 AM 66.9 °F 63.0 °F 87% 30.00 in 10.0 mi East 6.9 mph - 0.01 in   Mostly Cloudy
11:27 AM 69.8 °F 62.6 °F 78% 29.99 in 10.0 mi NNE 4.6 mph - N/A   Mostly Cloudy
11:53 AM 69.1 °F 63.0 °F 81% 29.98 in 10.0 mi NNE 4.6 mph - N/A   Mostly Cloudy
12:32 PM 69.8 °F 62.6 °F 78% 29.96 in 10.0 mi ENE 4.6 mph - N/A   Mostly Cloudy
12:53 PM 70.0 °F 63.0 °F 78% 29.95 in 10.0 mi East 3.5 mph - N/A   Mostly Cloudy
1:03 PM 69.8 °F 62.6 °F 78% 29.95 in 10.0 mi East 3.5 mph - N/A   Mostly Cloudy
1:53 PM 70.0 °F 64.0 °F 81% 29.94 in 10.0 mi ESE 6.9 mph - 0.00 in   Mostly Cloudy
2:53 PM 70.0 °F 64.0 °F 81% 29.94 in 10.0 mi East 8.1 mph - N/A   Mostly Cloudy
3:53 PM 68.0 °F 64.0 °F 87% 29.94 in 10.0 mi ESE 9.2 mph - N/A   Overcast
4:45 PM 68.0 °F 64.4 °F 88% 29.94 in 10.0 mi East 12.7 mph - N/A   Overcast
4:53 PM 66.9 °F 64.0 °F 90% 29.94 in 9.0 mi East 10.4 mph - 0.00 in Rain Light Rain
5:53 PM 66.9 °F 64.9 °F 93% 29.95 in 10.0 mi East 6.9 mph - 0.00 in   Overcast
6:04 PM 66.2 °F 64.4 °F 94% 29.95 in 10.0 mi East 6.9 mph - N/A   Overcast
8:51 PM 66.2 °F 64.4 °F 94% 29.98 in 9.0 mi ESE 10.4 mph - N/A   Overcast
8:53 PM 66.0 °F 64.0 °F 93% 29.98 in 8.0 mi ESE 9.2 mph - N/A   Overcast
9:53 PM 66.0 °F 64.0 °F 93% 29.98 in 8.0 mi ESE 4.6 mph - N/A   Overcast
10:09 PM 66.2 °F 64.4 °F 94% 29.98 in 8.0 mi ESE 9.2 mph - N/A   Overcast
10:53 PM 66.0 °F 64.0 °F 93% 29.98 in 8.0 mi East 4.6 mph - N/A   Overcast
11:53 PM 64.9 °F 64.0 °F 97% 29.97 in 7.0 mi East 5.8 mph - N/A   Overcast